Location: Bailleul
(50.3375°N, 2.8513°E)
Time: 09:54:51
(UTC+00:00)

Cosmos 2016 Rocket - Pass Details

Date: 01 November 2021
Orbit: 946 x 1001 km, 83.0° (Epoch: 29 November)

Event Time Altitude Azimuth Distance (km) Brightness Sun altitude
Rises 05:25:43 0° 351° (N) 3,630 6.8 -12.1°
Reaches altitude 10° 05:28:15 10° 355° (N) 2,683 6.2 -11.7°
Maximum altitude 05:34:21 65° 77° (ENE) 1,046 4.5 -10.8°
Drops below altitude 10° 05:40:26 10° 159° (SSE) 2,687 6.8 -9.8°
Sets 05:42:58 0° 163° (SSE) 3,636 7.4 -9.4°
